ORBCOMM FM26 [-]

Last updated on July 6, 2021, 3:36 p.m. UTC

1 25480U 98053F   21187.11194954  .00000043  00000-0  66630-4 0  9999
2 25480  45.0065 219.9570 0008268 269.1803  90.8095 14.32903902190708
UTC
Height (km)
Latitude
Longitude
Inclination
Orbital Period
UTC large
Height (km)
Speed (km/s)
/
Latitude / Longitude
Inclination (degrees)
Orbital Period (minutes)
Azimuth
Elevation
Range (km)
Doppler Factor
iOS Compass Heading
iOS Angle